Location: Burbank
(38.7788°N, 114.0429°W)
Time: 06:16:30
(UTC+00:00)

Tiros 1 despin weight - Pass Details

Date: 17 May 2026
Orbit: 554 x 591 km, 48.2° (Epoch: 7 June)

Event Time Altitude Azimuth Distance (km) Brightness Sun altitude
Exits shadow 10:26:12 20° 159° (SSE) 1,322 ? -19.1°
Maximum altitude 10:27:20 23° 135° (SE) 1,232 ? -18.9°
Drops below altitude 10° 10:30:41 10° 83° (E) 1,854 ? -18.4°
Sets 10:33:16 0° 68° (ENE) 2,747 ? -18.1°
